• In Netherlands
  • List of Countries
  • For 7 days
  • Water Temperature
  • Satellite Maps
  • Weather Map
  • Weather Widgets
  • user-avatar
    Login

    Hourly Weather Santiago del Estero

    Today, 15 December, Friday

    Time Temperature Precipitation Wind Pressure Humidity
    00:00 +26°C° 0 mm 2 mps 741 mmHg 66%
    01:00 +26°C° 0 mm 1 mps 741 mmHg 67%
    02:00 +25°C° 0 mm 1 mps 741 mmHg 68%
    03:00 +25°C° 0 mm 1 mps 741 mmHg 68%
    04:00 +25°C° 0 mm 1 mps 741 mmHg 68%
    05:00 +25°C° 0 mm 1 mps 741 mmHg 68%
    06:00 +25°C° 0 mm 1 mps 741 mmHg 66%
    07:00 +26°C° 0 mm 1 mps 741 mmHg 65%
    08:00 +27°C° 0 mm 1 mps 741 mmHg 63%
    09:00 +29°C° 0 mm 2 mps 741 mmHg 57%
    10:00 +31°C° 0 mm 3 mps 741 mmHg 51%
    11:00 +35°C° 0 mm 4 mps 740 mmHg 45%
    12:00 +37°C° 0 mm 4 mps 739 mmHg 41%
    13:00 +38°C° 0 mm 4 mps 738 mmHg 36%
    14:00 +41°C° 0 mm 4 mps 737 mmHg 32%
    15:00 +42°C° 0 mm 4 mps 737 mmHg 30%
    16:00 +42°C° 0 mm 4 mps 736 mmHg 29%
    17:00 +42°C° 0 mm 4 mps 735 mmHg 27%
    18:00 +39°C° 0 mm 3 mps 735 mmHg 31%
    19:00 +37°C° 0 mm 3 mps 735 mmHg 34%
    20:00 +35°C° 0 mm 2 mps 735 mmHg 38%
    21:00 +35°C° 0 mm 3 mps 735 mmHg 38%
    22:00 +35°C° 0 mm 3 mps 735 mmHg 39%
    23:00 +35°C° 0 mm 3 mps 736 mmHg 39%

    Tomorrow, 16 December, Saturday

    Time Temperature Precipitation Wind Pressure Humidity
    00:00 +34°C° 0 mm 3 mps 735 mmHg 41%
    01:00 +33°C° 0 mm 3 mps 735 mmHg 43%
    02:00 +33°C° 0 mm 3 mps 734 mmHg 45%
    03:00 +33°C° 0 mm 4 mps 734 mmHg 44%
    04:00 +32°C° 0 mm 5 mps 734 mmHg 43%
    05:00 +32°C° 0 mm 5 mps 734 mmHg 43%
    06:00 +34°C° 0 mm 7 mps 734 mmHg 41%
    07:00 +35°C° 0 mm 8 mps 735 mmHg 39%
    08:00 +38°C° 0 mm 10 mps 735 mmHg 37%
    09:00 +40°C° 0 mm 10 mps 735 mmHg 33%
    10:00 +42°C° 0 mm 10 mps 734 mmHg 29%
    11:00 +44°C° 0 mm 10 mps 734 mmHg 26%
    12:00 +45°C° 0 mm 10 mps 733 mmHg 24%
    13:00 +47°C° 0 mm 10 mps 732 mmHg 23%
    14:00 +48°C° 0 mm 10 mps 731 mmHg 21%
    15:00 +48°C° 0 mm 9 mps 731 mmHg 21%
    16:00 +48°C° 0 mm 9 mps 730 mmHg 21%
    17:00 +48°C° 0 mm 8 mps 729 mmHg 21%
    18:00 +45°C° 0 mm 7 mps 730 mmHg 24%
    19:00 +42°C° 0 mm 5 mps 730 mmHg 27%
    20:00 +40°C° 0 mm 4 mps 730 mmHg 30%
    21:00 +38°C° 0 mm 4 mps 731 mmHg 30%
    22:00 +37°C° 0 mm 4 mps 731 mmHg 31%
    23:00 +37°C° 0 mm 4 mps 732 mmHg 32%

    Day after tomorrow, 17 December, Sunday

    Time Temperature Precipitation Wind Pressure Humidity
    00:00 +36°C° 0 mm 4 mps 732 mmHg 34%
    01:00 +35°C° 0 mm 3 mps 731 mmHg 35%
    02:00 +34°C° 0 mm 3 mps 731 mmHg 37%
    03:00 +33°C° 0 mm 6 mps 732 mmHg 43%
    04:00 +32°C° 0 mm 9 mps 734 mmHg 49%
    05:00 +31°C° 0 mm 11 mps 735 mmHg 55%
    06:00 +28°C° 0.1 mm 11 mps 738 mmHg 58%
    07:00 +27°C° 0.1 mm 12 mps 740 mmHg 60%
    08:00 +26°C° 0.1 mm 12 mps 743 mmHg 62%
    09:00 +24°C° 0.1 mm 10 mps 745 mmHg 58%
    10:00 +24°C° 0.1 mm 9 mps 746 mmHg 54%
    11:00 +23°C° 0.1 mm 8 mps 747 mmHg 50%
    12:00 +24°C° 0 mm 7 mps 747 mmHg 45%
    13:00 +26°C° 0 mm 6 mps 747 mmHg 41%
    14:00 +27°C° 0 mm 4 mps 746 mmHg 36%
    15:00 +28°C° 0 mm 4 mps 746 mmHg 34%
    16:00 +30°C° 0 mm 4 mps 745 mmHg 32%
    17:00 +31°C° 0 mm 3 mps 744 mmHg 30%
    18:00 +29°C° 0 mm 3 mps 744 mmHg 32%
    19:00 +28°C° 0 mm 2 mps 744 mmHg 35%
    20:00 +26°C° 0 mm 2 mps 745 mmHg 37%
    21:00 +25°C° 0 mm 2 mps 745 mmHg 39%
    22:00 +24°C° 0 mm 2 mps 746 mmHg 42%
    23:00 +24°C° 0 mm 2 mps 746 mmHg 44%

    18 December, Monday

    Time Temperature Precipitation Wind Pressure Humidity
    00:00 +23°C° 0 mm 2 mps 746 mmHg 45%
    01:00 +23°C° 0 mm 2 mps 745 mmHg 46%
    02:00 +21°C° 0 mm 2 mps 745 mmHg 47%
    03:00 +21°C° 0 mm 2 mps 744 mmHg 47%
    04:00 +21°C° 0 mm 1 mps 744 mmHg 47%
    05:00 +21°C° 0 mm 1 mps 744 mmHg 47%
    06:00 +23°C° 0 mm 2 mps 744 mmHg 46%
    07:00 +24°C° 0 mm 3 mps 744 mmHg 46%
    08:00 +26°C° 0 mm 4 mps 745 mmHg 45%
    09:00 +27°C° 0 mm 4 mps 744 mmHg 43%
    10:00 +29°C° 0 mm 4 mps 744 mmHg 41%
    11:00 +31°C° 0 mm 3 mps 744 mmHg 38%
    12:00 +33°C° 0 mm 3 mps 743 mmHg 38%
    13:00 +33°C° 0 mm 4 mps 742 mmHg 37%
    14:00 +34°C° 0 mm 4 mps 741 mmHg 37%
    15:00 +34°C° 0 mm 4 mps 740 mmHg 40%
    16:00 +34°C° 0 mm 5 mps 740 mmHg 43%
    17:00 +33°C° 0 mm 5 mps 739 mmHg 46%
    18:00 +32°C° 0 mm 4 mps 739 mmHg 50%
    19:00 +30°C° 0 mm 3 mps 740 mmHg 55%
    20:00 +29°C° 0 mm 2 mps 740 mmHg 59%
    21:00 +29°C° 0 mm 2 mps 740 mmHg 60%
    22:00 +29°C° 0 mm 2 mps 741 mmHg 61%
    23:00 +28°C° 0 mm 2 mps 741 mmHg 62%

    19 December, Tuesday

    Time Temperature Precipitation Wind Pressure Humidity
    00:00 +28°C° 0 mm 2 mps 741 mmHg 64%
    01:00 +28°C° 0 mm 2 mps 740 mmHg 67%
    02:00 +27°C° 0 mm 2 mps 740 mmHg 69%
    03:00 +27°C° 0 mm 1 mps 740 mmHg 71%
    04:00 +26°C° 0 mm 1 mps 740 mmHg 73%
    05:00 +26°C° 0 mm 1 mps 740 mmHg 75%
    06:00 +28°C° 0 mm 1 mps 740 mmHg 69%
    07:00 +29°C° 0 mm 2 mps 741 mmHg 64%
    08:00 +31°C° 0 mm 2 mps 741 mmHg 58%
    09:00 +34°C° 0 mm 3 mps 741 mmHg 52%
    10:00 +36°C° 0 mm 4 mps 740 mmHg 46%
    11:00 +39°C° 0 mm 5 mps 740 mmHg 40%
    12:00 +39°C° 0 mm 5 mps 739 mmHg 38%
    13:00 +40°C° 0 mm 5 mps 738 mmHg 37%
    14:00 +41°C° 0 mm 4 mps 737 mmHg 35%
    15:00 +40°C° 0 mm 4 mps 737 mmHg 37%
    16:00 +40°C° 0 mm 4 mps 736 mmHg 38%
    17:00 +38°C° 0 mm 3 mps 736 mmHg 40%
    18:00 +37°C° 0 mm 4 mps 737 mmHg 43%
    19:00 +35°C° 0 mm 4 mps 737 mmHg 47%
    20:00 +34°C° 0 mm 4 mps 737 mmHg 51%
    21:00 +33°C° 0.1 mm 4 mps 738 mmHg 57%
    22:00 +32°C° 0.1 mm 4 mps 738 mmHg 63%
    23:00 +30°C° 0.1 mm 4 mps 739 mmHg 69%

    20 December, Wednesday

    Time Temperature Precipitation Wind Pressure Humidity
    00:00 +29°C° 0.2 mm 4 mps 738 mmHg 71%
    01:00 +29°C° 0.2 mm 4 mps 738 mmHg 74%
    02:00 +28°C° 0.2 mm 4 mps 738 mmHg 77%
    03:00 +27°C° 0 mm 4 mps 737 mmHg 80%
    04:00 +27°C° 0 mm 3 mps 737 mmHg 82%
    05:00 +26°C° 0 mm 3 mps 737 mmHg 84%
    06:00 +28°C° 0 mm 3 mps 738 mmHg 78%
    07:00 +30°C° 0 mm 3 mps 738 mmHg 72%
    08:00 +32°C° 0 mm 4 mps 738 mmHg 65%
    09:00 +34°C° 0 mm 4 mps 738 mmHg 57%
    10:00 +37°C° 0 mm 4 mps 737 mmHg 49%
    11:00 +40°C° 0 mm 4 mps 737 mmHg 42%
    12:00 +40°C° 0 mm 4 mps 736 mmHg 41%
    13:00 +40°C° 0 mm 5 mps 735 mmHg 40%
    14:00 +41°C° 0 mm 5 mps 734 mmHg 39%
    15:00 +41°C° 0 mm 5 mps 734 mmHg 37%
    16:00 +41°C° 0 mm 4 mps 733 mmHg 36%
    17:00 +42°C° 0 mm 4 mps 733 mmHg 35%
    18:00 +40°C° 0 mm 4 mps 733 mmHg 39%
    19:00 +38°C° 0 mm 4 mps 733 mmHg 42%
    20:00 +36°C° 0 mm 4 mps 734 mmHg 46%
    21:00 +36°C° 0 mm 4 mps 734 mmHg 49%
    22:00 +35°C° 0 mm 4 mps 734 mmHg 52%
    23:00 +34°C° 0 mm 5 mps 735 mmHg 55%
    Show more